{"data":{"norad_id":50475,"epoch":"2026-05-25T03:00:36.681984Z","epoch_age_seconds":64970,"freshness":"FRESH","line1":"1 50475U 21132G   26145.12542456  .00000459  00000+0  12601-2 0  9996","line2":"2 50475  87.8904  25.6567 0001793  89.7018 270.4315 13.11414547212696","mean_motion":13.11414547,"eccentricity":0.0001793,"inclination_deg":87.8904,"raan_deg":25.6567,"arg_perigee_deg":89.7018,"mean_anomaly_deg":270.4315,"bstar":0.0012601,"rev_number":21269,"period_min":109.80509582528,"perigee_km":1216.3300258461,"apogee_km":1219.0538901104,"semimajor_km":7595.8289579782,"source":"CELESTRAK","updated_at":"2026-05-25T13:38:22.528979Z"}}